Wind_Speed
1 0 0 0 0 1 2 3 3 4 4 4 4 5 5 5 6 6 5 5 6 6 7 7 7 8 7 7 8 8 8 8 8 8 8 8 7 7 7 8 7 8 9
1 1 1 1 1 1 2 3 3 4 4 5 5 5 5 5 6 6 6 6 7 7 8 8 9 9 8 8 8 8 8 8 8 8 8 8 7 7 8 8 8 8 8
2 1 2 1 1 1 2 2 3 3 4 5 5 5 6 6 7 7 7 7 8 8 9 9 9 9 9 9 8 8 8 8 7 8 8 8 8 7 8 8 8 8 8
2 2 2 2 2 2 2 2 3 4 5 5 6 6 7 7 8 8 9 9 9 9 9 9 9 10 9 9 9 8 8 8 8 7 8 8 8 8 8 8 8 8 8
3 3 3 3 3 2 2 3 4 5 5 6 6 6 7 8 8 9 9 9 9 9 9 9 9 9 10 10 10 9 9 8 8 8 8 8 8 8 8 8 7 8 8
3 3 3 3 3 2 2 3 4 5 6 6 6 6 7 8 8 9 8 9 9 9 9 9 9 9 10 10 10 10 9 9 9 9 8 8 8 8 8 8 8 8 8
1 2 2 2 2 2 3 4 5 5 5 5 6 6 7 8 8 8 9 9 9 9 9 9 9 10 10 10 10 10 9 9 9 9 9 9 9 9 8 8 8 8 8
1 1 2 1 2 2 3 4 5 5 5 6 6 7 7 8 8 9 9 9 9 9 9 9 9 10 10 10 11 10 10 9 9 10 10 10 9 9 9 8 8 8 8
1 1 2 2 2 3 3 4 4 5 5 6 6 7 7 8 8 8 9 9 9 9 10 10 10 9 10 10 10 10 10 10 10 9 10 10 10 10 9 9 9 9 9
2 1 1 2 2 2 3 4 4 5 6 6 7 7 7 8 8 8 8 8 8 9 9 9 9 9 9 9 9 9 10 10 10 10 10 10 11 11 10 10 10 9 9
2 1 2 2 2 3 3 4 5 5 6 6 7 7 7 7 8 7 7 8 8 8 8 9 9 9 8 8 8 8 9 9 10 10 10 11 11 11 11 10 10 10 9
2 1 2 3 3 2 3 4 4 5 5 6 6 7 7 7 7 8 8 8 8 8 8 8 8 8 8 8 8 8 8 8 9 10 11 11 11 11 11 11 11 10 10
2 2 1 1 2 2 3 3 3 4 5 6 6 7 7 7 7 8 8 8 8 8 7 8 8 8 8 7 7 7 8 8 9 10 11 11 11 11 11 11 11 11 10
2 1 1 0 0 1 2 2 4 5 6 7 7 7 7 7 7 7 7 8 8 7 7 7 7 7 7 7 7 7 7 8 8 10 10 11 10 10 10 11 11 11 10
2 2 1 1 0 1 2 3 4 5 6 7 7 8 8 7 7 7 8 8 8 7 7 7 6 6 6 5 6 6 6 6 8 8 9 10 10 9 10 10 10 10 10
3 2 2 1 1 1 2 4 5 6 6 7 8 8 8 8 8 8 8 8 7 7 6 5 5 5 5 5 5 5 5 5 6 7 8 9 9 9 9 9 10 10 10
3 2 1 1 0 1 2 4 5 6 6 8 8 9 9 9 9 9 9 9 8 7 6 5 5 4 4 3 3 3 3 4 5 6 6 8 8 9 9 9 9 9 9
4 2 2 1 1 2 3 4 5 6 7 8 9 10 10 10 10 10 9 9 8 7 6 5 4 4 3 2 2 2 2 3 4 5 5 7 8 8 9 9 9 9 9
4 3 2 2 2 2 3 4 5 6 8 9 10 10 10 11 11 11 10 10 9 9 8 6 5 4 2 1 1 0 1 2 3 4 5 6 7 7 8 8 9 9 9
5 4 3 3 2 2 3 5 6 7 8 9 10 10 11 11 12 12 12 11 11 11 10 9 7 7 5 4 4 3 3 3 4 5 5 6 6 7 8 8 8 9 9
6 5 5 3 3 3 4 5 6 7 8 9 10 11 11 12 12 13 13 13 12 12 12 11 9 9 8 7 6 6 5 5 5 6 5 6 7 7 8 8 8 9 9
7 6 5 4 3 4 4 5 6 7 8 9 10 11 12 12 13 13 13 14 14 13 13 12 11 10 9 8 7 7 7 6 6 6 6 6 7 7 7 7 8 8 9
8 7 6 5 5 4 4 5 6 7 8 9 10 11 12 12 12 13 13 14 14 14 14 13 12 11 11 10 9 8 8 7 7 6 6 6 6 6 6 6 7 7 8
9 8 7 6 5 5 5 5 6 6 7 8 9 10 11 12 12 13 13 13 14 14 14 13 13 12 11 11 10 9 8 7 7 6 6 5 5 5 5 5 6 6 7
10 9 8 7 6 6 6 6 5 5 6 7 8 9 11 11 12 12 12 13 14 14 14 14 13 13 12 11 11 10 9 8 7 6 6 5 4 4 4 4 4 5 5
11 10 10 8 7 7 7 6 5 5 5 6 7 8 10 11 11 12 12 13 13 13 13 13 13 13 12 11 11 10 9 9 7 7 6 5 4 3 3 3 3 4 4
Wind_Direction
197 223 272 279 259 302 313 311 317 324 327 324 321 311 293 291 295 296 295 295 295 295 294 286 280 274 270 266 262 256 251 248 244 240 237 233 230 227 224 223 222 216 216
232 251 264 255 276 274 291 293 299 309 313 311 305 301 293 287 285 284 289 291 291 290 288 284 278 271 268 263 260 257 251 244 240 238 235 233 233 231 227 224 222 220 220
233 248 253 246 262 272 289 294 300 308 312 310 304 295 293 289 288 286 285 285 285 286 285 282 277 269 265 261 260 256 249 242 238 235 235 235 235 235 233 227 221 222 222
247 259 254 244 247 264 279 294 305 309 308 308 304 297 293 291 289 286 283 281 283 284 282 278 277 268 262 259 257 254 247 242 239 237 236 236 234 234 233 227 223 222 220
259 258 258 246 248 264 279 296 307 311 308 307 304 299 293 291 290 289 288 285 285 282 278 275 273 268 260 260 256 252 247 244 240 238 236 236 233 232 230 228 226 225 223
261 247 242 237 249 260 279 298 310 313 311 307 303 301 297 292 290 292 291 288 286 282 277 274 272 271 263 257 256 253 247 242 238 237 238 235 231 230 228 228 228 227 227
262 229 220 232 259 267 282 300 309 312 312 308 301 299 298 293 293 294 292 288 284 282 278 276 275 273 269 260 254 251 246 241 238 238 235 233 229 227 227 227 225 226 229
188 235 227 233 273 289 296 303 305 306 307 306 301 297 298 298 295 295 293 290 285 282 279 278 278 276 271 264 255 250 246 242 239 238 235 233 229 226 225 225 225 225 225
187 222 244 248 267 289 298 303 305 306 306 307 309 306 304 303 300 296 295 293 288 286 282 280 279 277 273 266 256 250 246 242 238 236 234 231 228 226 227 226 225 226 226
163 177 232 249 263 284 298 306 308 312 312 312 317 317 312 309 305 303 301 299 294 290 285 282 281 280 276 268 257 250 245 240 236 235 232 231 229 229 229 228 225 226 227
167 208 265 271 284 293 307 317 319 323 321 321 324 323 318 313 312 311 309 307 302 298 292 286 284 283 280 271 260 252 246 242 237 234 232 231 230 231 230 230 225 225 227
180 224 257 275 287 308 324 326 328 336 337 337 336 332 326 323 321 318 316 313 310 304 297 290 286 284 280 276 267 257 251 244 240 236 233 230 231 232 231 228 224 222 224
193 215 229 276 299 320 336 335 346 351 349 347 344 339 335 332 329 325 324 322 319 310 302 296 288 282 276 274 269 261 253 245 240 237 232 230 230 232 230 228 225 220 222
195 175 135 117 296 331 343 355 10 4 359 357 353 348 345 343 341 339 339 336 328 320 312 304 293 285 279 275 271 264 253 246 239 235 229 227 229 229 228 227 223 217 215
177 168 137 144 97 26 12 18 20 9 5 5 1 356 354 355 355 354 352 347 339 330 321 312 303 295 287 278 274 266 252 246 236 231 224 222 222 222 221 220 218 214 212
178 162 130 110 54 30 23 22 18 11 9 12 13 12 12 9 5 3 360 357 353 344 335 327 318 308 295 286 282 268 250 236 233 225 216 213 211 210 210 210 209 208 207
175 163 145 142 22 40 35 31 25 21 22 25 26 24 24 22 19 16 12 9 2 355 352 347 338 328 312 301 295 276 245 236 230 220 213 207 204 203 202 201 199 198 199
187 174 159 145 105 68 47 40 36 38 38 35 33 32 33 31 28 25 22 20 15 11 7 2 357 345 330 320 310 269 234 222 208 206 200 196 197 198 195 194 191 189 192
193 183 168 151 117 82 62 55 55 53 47 42 40 39 37 36 35 34 34 30 27 24 22 20 21 23 22 34 41 78 159 180 173 174 179 181 186 189 188 190 188 185 186
198 190 177 162 125 90 78 71 69 61 54 49 46 43 41 41 41 43 41 38 37 37 37 38 41 46 52 64 77 87 105 120 148 157 166 169 172 178 183 186 182 182 183
197 191 185 173 143 115 100 88 78 64 56 52 50 48 47 45 46 47 47 46 46 46 46 48 51 52 57 66 75 80 93 104 118 130 143 154 160 167 173 175 177 180 183
193 190 181 170 156 133 113 98 81 69 62 59 55 52 50 49 49 49 51 51 52 51 51 53 55 56 60 67 74 81 89 99 104 112 124 139 146 152 160 167 174 181 188
196 191 181 173 163 142 121 106 91 78 70 64 58 55 52 52 53 52 54 54 54 54 54 56 59 61 64 69 75 81 87 94 98 105 116 127 134 138 146 156 166 176 185
198 192 185 174 165 149 138 124 104 86 75 67 59 55 53 54 55 55 57 57 55 56 56 58 59 62 65 69 74 78 84 90 94 100 108 121 133 143 149 153 162 173 183
198 194 188 177 173 162 150 135 117 94 80 71 62 57 54 55 55 56 58 59 57 57 57 58 59 60 63 68 71 74 78 81 85 91 101 112 124 143 157 163 171 179 187
200 195 187 182 180 172 160 145 131 109 92 76 65 56 54 53 54 57 58 59 59 58 58 58 58 58 61 65 68 71 72 73 75 80 87 94 100 116 143 164 171 187 199
Height
5896 5895 5895 5895 5895 5895 5894 5894 5894 5893 5892 5892 5891 5890 5890 5889 5888 5888 5887 5886 5885 5885 5884 5883 5883 5883 5882 5882 5882 5882 5882 5882 5883 5883 5884 5884 5885 5885 5886 5886 5887 5888 5889
5895 5895 5895 5895 5894 5894 5894 5893 5893 5893 5892 5891 5890 5890 5889 5888 5887 5887 5886 5885 5884 5883 5883 5882 5881 5881 5881 5881 5880 5880 5880 5881 5881 5882 5882 5883 5883 5884 5884 5885 5886 5887 5888
5895 5895 5894 5894 5894 5893 5893 5893 5893 5892 5891 5890 5889 5889 5888 5887 5886 5885 5885 5884 5883 5882 5881 5880 5880 5879 5879 5879 5879 5879 5879 5879 5879 5880 5881 5881 5882 5883 5883 5884 5885 5886 5886
5894 5894 5894 5893 5893 5893 5893 5892 5892 5891 5890 5889 5889 5888 5887 5886 5885 5884 5883 5882 5881 5880 5880 5879 5878 5877 5877 5877 5877 5877 5877 5878 5878 5879 5879 5880 5881 5881 5882 5883 5884 5885 5886
5893 5893 5893 5892 5892 5892 5892 5892 5891 5890 5889 5888 5888 5887 5886 5885 5884 5883 5881 5880 5879 5879 5878 5877 5876 5875 5875 5875 5875 5875 5876 5876 5877 5877 5878 5879 5879 5880 5881 5882 5883 5884 5884
5892 5892 5892 5892 5891 5891 5891 5891 5890 5889 5888 5887 5886 5885 5884 5883 5882 5881 5880 5879 5878 5877 5876 5875 5874 5874 5873 5873 5873 5873 5874 5875 5875 5876 5876 5877 5878 5879 5879 5881 5882 5882 5883
5891 5891 5891 5891 5891 5891 5890 5890 5889 5888 5887 5886 5885 5884 5883 5882 5880 5879 5878 5877 5876 5875 5874 5873 5873 5872 5871 5871 5871 5872 5872 5873 5873 5874 5875 5875 5876 5877 5878 5879 5880 5881 5882
5890 5890 5890 5890 5890 5890 5889 5889 5888 5887 5886 5885 5884 5882 5881 5880 5879 5878 5876 5875 5874 5873 5872 5872 5871 5870 5870 5869 5869 5870 5870 5871 5871 5872 5873 5874 5875 5876 5877 5878 5879 5880 5881
5889 5889 5889 5889 5889 5889 5889 5888 5887 5886 5885 5884 5882 5881 5880 5878 5877 5876 5875 5873 5872 5871 5870 5869 5868 5868 5867 5867 5867 5868 5868 5869 5869 5870 5871 5872 5873 5874 5875 5876 5877 5878 5879
5888 5889 5889 5889 5888 5888 5888 5887 5886 5885 5884 5882 5881 5880 5878 5877 5876 5874 5873 5872 5870 5869 5868 5867 5866 5866 5865 5865 5865 5865 5866 5866 5867 5868 5869 5870 5871 5872 5874 5875 5876 5877 5878
5888 5888 5888 5888 5888 5887 5887 5886 5885 5884 5882 5881 5880 5878 5877 5875 5874 5872 5871 5870 5868 5867 5866 5865 5864 5864 5863 5863 5863 5863 5864 5864 5865 5866 5867 5868 5869 5870 5872 5873 5874 5875 5876
5888 5888 5887 5887 5887 5887 5886 5885 5884 5883 5881 5880 5879 5877 5876 5874 5872 5871 5869 5868 5866 5865 5864 5863 5862 5862 5861 5861 5861 5861 5862 5862 5863 5864 5865 5866 5867 5868 5870 5871 5872 5874 5875
5888 5887 5887 5887 5887 5886 5885 5884 5883 5882 5881 5879 5878 5876 5875 5873 5871 5869 5868 5866 5865 5863 5862 5861 5860 5860 5859 5859 5859 5859 5860 5860 5861 5862 5863 5864 5865 5867 5868 5869 5870 5872 5873
5887 5887 5887 5887 5886 5886 5885 5884 5883 5881 5880 5879 5877 5875 5873 5871 5870 5868 5866 5864 5863 5861 5860 5859 5858 5858 5857 5857 5857 5857 5858 5858 5859 5859 5860 5861 5863 5864 5866 5867 5869 5870 5872
5887 5886 5886 5887 5886 5885 5885 5884 5882 5881 5880 5878 5876 5875 5872 5870 5869 5867 5865 5863 5861 5860 5859 5857 5856 5856 5856 5856 5855 5855 5856 5856 5856 5857 5858 5859 5861 5862 5864 5866 5867 5869 5870
5886 5886 5886 5886 5885 5885 5884 5883 5882 5881 5879 5878 5876 5874 5872 5870 5868 5866 5864 5862 5860 5858 5857 5856 5855 5854 5854 5854 5854 5854 5854 5854 5855 5855 5856 5857 5859 5861 5863 5864 5866 5868 5869
5885 5885 5885 5885 5885 5885 5884 5883 5882 5881 5879 5877 5876 5874 5871 5869 5867 5865 5863 5861 5859 5857 5856 5855 5854 5853 5853 5852 5852 5852 5852 5853 5853 5854 5855 5856 5858 5860 5861 5863 5865 5867 5868
5884 5884 5885 5885 5885 5884 5884 5883 5882 5881 5879 5877 5876 5874 5872 5869 5867 5865 5863 5861 5859 5857 5855 5854 5853 5852 5852 5851 5851 5851 5852 5852 5852 5853 5854 5855 5857 5859 5861 5862 5864 5866 5868
5883 5884 5884 5885 5885 5884 5884 5883 5882 5881 5879 5878 5876 5874 5872 5870 5868 5865 5863 5861 5859 5857 5855 5853 5852 5852 5851 5851 5851 5851 5851 5851 5852 5853 5854 5855 5856 5858 5860 5862 5863 5865 5867
5882 5883 5884 5884 5884 5884 5884 5883 5882 5881 5880 5878 5876 5875 5873 5871 5868 5866 5864 5861 5859 5857 5855 5854 5853 5852 5851 5851 5851 5851 5851 5851 5852 5853 5854 5855 5856 5858 5859 5861 5863 5865 5866
5882 5883 5884 5884 5884 5884 5884 5883 5883 5882 5880 5879 5877 5876 5874 5872 5869 5867 5865 5863 5861 5859 5857 5855 5854 5853 5853 5852 5852 5852 5852 5852 5853 5853 5854 5855 5856 5858 5859 5861 5862 5864 5866
5881 5882 5883 5884 5884 5884 5884 5884 5883 5882 5881 5880 5879 5877 5875 5873 5871 5869 5867 5865 5862 5860 5859 5857 5856 5855 5854 5854 5853 5853 5853 5854 5854 5855 5855 5856 5857 5858 5859 5861 5862 5864 5866
5880 5882 5883 5883 5884 5884 5884 5884 5884 5883 5882 5881 5880 5878 5876 5874 5872 5870 5868 5867 5865 5863 5861 5860 5859 5857 5856 5856 5855 5855 5855 5855 5856 5856 5857 5857 5858 5859 5860 5861 5862 5864 5865
5879 5881 5882 5883 5884 5884 5884 5884 5884 5884 5883 5882 5881 5880 5878 5876 5874 5872 5871 5869 5867 5866 5864 5862 5861 5860 5859 5858 5858 5857 5858 5857 5857 5858 5858 5858 5859 5860 5861 5861 5862 5863 5865
5878 5880 5881 5882 5883 5884 5884 5884 5885 5884 5884 5883 5882 5881 5880 5878 5876 5875 5873 5871 5870 5868 5866 5865 5864 5862 5861 5860 5860 5860 5859 5859 5859 5859 5859 5860 5860 5861 5861 5862 5862 5863 5865
5877 5879 5880 5882 5883 5884 5884 5884 5885 5885 5884 5884 5883 5882 5881 5880 5878 5877 5875 5873 5872 5871 5869 5867 5866 5865 5864 5863 5862 5862 5861 5861 5861 5860 5860 5860 5861 5861 5861 5862 5862 5863 5864